Flag for Belgium Weather past 2 weeks in Namur, Belgium

Now
73 °F

Partly sunny.


Feels Like: 75 °F
Forecast: 57 / 73 °F
Wind: 9 mph from North

Location: Charleroi / Gosselies

Current Time: Jul 29, 2014 at 3:47:52 PM

Latest Report: Jul 29, 2014 at 2:50 PM


Visibility: 5 mi

Pressure: 29.89 "Hg

Humidity: 74%

Dew point: 64 °F

Location of NamurLocation

Historic Weather in Namur — Graph

°F

Namur temperature yesterday

Maximum temperature yesterday: 68 °F (at 3:50 PM)
Minimum temperature yesterday: 59 °F (at 12:50 PM)
Average temperature yesterday: 64 °F

Past Weeks' High & Low Weather Summary

 TemperatureHumidityPressure
High91 °F (Jul 18, 4:20 PM)100% (Jul 21, 1:50 AM)30.21 "Hg (Jul 21, 1:50 AM)
Low54 °F (Jul 15, 4:50 AM)34% (Jul 18, 4:20 PM)29.80 "Hg (Jul 19, 7:20 PM)
Average69 °F72%30.00 "Hg
* Reported Jul 14 2:20 PM — Jul 29 2:50 PM, Namur, Weather by CustomWeather, © 2014

Note: Actual official high and low records may vary slightly from our data, if they occured in-between our weather recording intervals... More about our weather records

Advertising

Namur weather history for previous 24 hours

 ConditionsComfort  
Time TempWeatherWind HumidityBarometerVisibility
2:50 PM
Jul 29
73 °FPartly sunny.9 mph74%29.89 "Hg5 mi
1:50 PM73 °FBroken clouds.10 mph74%29.89 "Hg4 mi
1:20 PM72 °FPartly sunny.9 mph78%29.89 "Hg4 mi
12:50 PM70 °FPartly sunny.8 mph83%29.89 "Hg4 mi
12:20 PM70 °FFog.8 mph83%29.89 "Hg3 mi
11:50 AM68 °FFog.7 mph83%29.89 "Hg2 mi
11:20 AM64 °FFog.9 mph94%29.89 "Hg2 mi
10:50 AM64 °FFog.7 mph88%29.89 "Hg1 mi
10:20 AM63 °FFog.6 mph94%29.89 "Hg1 mi
9:50 AM61 °FFog.6 mph100%29.89 "Hg1 mi
9:20 AM61 °FFog.8 mph94%29.89 "Hg1 mi
8:50 AM61 °FFog.8 mph94%29.89 "Hg1 mi
8:20 AM61 °FFog.6 mph94%29.89 "Hg2 mi
7:50 AM59 °FPartly sunny.6 mph94%29.89 "Hg4 mi
7:20 AM59 °FBroken clouds.6 mph94%29.89 "Hg4 mi
6:50 AM59 °FPartly cloudy.5 mph94%29.89 "Hg4 mi
6:20 AM59 °FPartly cloudy.6 mph94%29.89 "Hg4 mi
5:50 AM59 °FPartly cloudy.6 mph94%29.89 "Hg4 mi
5:20 AM59 °FPassing clouds.5 mph94%29.89 "Hg4 mi
4:50 AM59 °FPassing clouds.5 mph94%29.89 "Hg4 mi
4:20 AM59 °FFog.5 mph94%29.89 "Hg3 mi
3:50 AM59 °FFog.3 mph94%29.92 "Hg3 mi
3:20 AM59 °FFog.5 mph94%29.92 "Hg3 mi
2:50 AM59 °FPassing clouds.3 mph94%29.92 "HgN/A
2:20 AM59 °FPassing clouds.5 mph94%29.92 "HgN/A
1:50 AM59 °FPassing clouds.5 mph94%29.92 "HgN/A
1:20 AM61 °FPassing clouds.5 mph88%29.92 "HgN/A
12:50 AM61 °FPassing clouds.5 mph88%29.92 "HgN/A
12:20 AM61 °FClear.5 mph88%29.92 "Hg10 mi
11:50 PM
Jul 28
61 °FPassing clouds.3 mph88%29.92 "HgN/A
11:20 PM61 °FPassing clouds.3 mph88%29.92 "HgN/A
10:50 PM61 °FPassing clouds.3 mph88%29.92 "HgN/A
10:20 PM63 °FPassing clouds.5 mph83%29.92 "HgN/A
9:50 PM63 °FPassing clouds.3 mph83%29.92 "HgN/A
9:20 PM64 °FPassing clouds.6 mph83%29.92 "HgN/A
8:50 PM64 °FPassing clouds.5 mph78%29.92 "HgN/A
8:20 PM66 °FPassing clouds.5 mph73%29.89 "HgN/A
7:50 PM66 °FPassing clouds.5 mph73%29.89 "HgN/A
7:20 PM66 °FPassing clouds.7 mph73%29.89 "HgN/A
6:50 PM66 °FScattered clouds.6 mph73%29.89 "HgN/A
6:20 PM66 °FScattered clouds.6 mph73%29.89 "HgN/A
5:50 PM68 °FScattered clouds.7 mph69%29.89 "HgN/A
5:20 PM66 °FScattered clouds.6 mph78%29.89 "HgN/A
4:50 PM68 °FScattered clouds.6 mph69%29.89 "HgN/A
4:20 PM66 °FLight rain. Scattered clouds.3 mph73%29.89 "HgN/A
3:50 PM68 °FScattered clouds.2 mph73%29.89 "HgN/A
3:20 PM66 °FScattered clouds.3 mph78%29.89 "HgN/A
Weather by CustomWeather, © 2014

See weather overviewHow to use our weather pages